Location: *
(2.5500°S, 65.9667°W)
Time: 07:15:33
(UTC+00:00)

Tiros 1 despin weight - Pass Details

Date: 22 April 2024
Orbit: 578 x 621 km, 48.2° (Epoch: 27 May)

Event Time Altitude Azimuth Distance (km) Brightness Sun altitude
Rises 13:08:37 0° 225° (SW) 2,784 ? 39.6°
Reaches altitude 10° 13:10:54 10° 229° (SW) 1,884 ? 40.2°
Maximum altitude 13:15:09 60° 308° (NW) 659 ? 41.2°
Drops below altitude 10° 13:19:24 10° 29° (NNE) 1,886 ? 42.2°
Sets 13:21:42 0° 33° (NNE) 2,788 ? 42.7°
